SL-16 DEB, 22368

Orbit data source: Space-Track

SL-16 DEB, 22368 is space debris in LEO originally from a launch on Fri, 25 Dec 1992 UTC launched from the Tyuratam Missile And Space Complex (TTMTR). Debris objects in space refer to the collection of defunct objects orbiting the Earth. Examples of debris include non-operational satellites, rocket bodies, and fragments generated from explosions, collisions, or faulty payload assembly.

Loading next visibility...
Identifier
22368, 1992-093BH
Orbit
LEO
Country
Flag of CISCIS
Related business
Manufacturer
Unknown
Mission
Spacecraft
Bus & Motor
Unknown
Mass
Unknown
Launch date (UTC)
1992-12-25 (33 years ago)
Launch vehicle
Unknown
Launch site
Tyuratam Missile And Space Complex (TTMTR)
Object type
Payload
Rocket body
Debris
Shape & HBR
Unknown shape, 0.2 m
Radar Cross Section
Medium (>0.1 m² and <1 m²)

Expand to show TLE details & history
Last TLE update: 5 hours ago

TLE from 5 hours ago
0 SL-16 DEB
1 22368U 92093BH  26133.48610823  .00000189  00000-0  57982-4 0  9994
2 22368  71.2431 317.3738 0113981 314.3591  72.3583 14.50535299737088
Epoch: 2026-05-13T11:39Z
TLE epoch observation values (Epoch: 2026-05-13T11:39:59.751Z)
Latitude
26.40925°
Longitude
-79.21448°
Altitude
702.95 km
Speed
7.52 km/s
True Right ascension
21h 48m 07s
True Declination
26° 16' 17"
Sunlit
Object was in daylight at epoch
Visualization orbit readout
Latitude
Unknown
Longitude
Unknown
Altitude
Unknown
Speed
Unknown
Apparent Right ascension
Unknown
Apparent Declination
Unknown
Sunlit
N/A
Visualization observer readout
Local Sidereal Time
00:49:57
Azimuth
Unknown
Elevation
Unknown
Doppler factor
Unknown
Orbital elements
Apogee altitude
802.692 km
Perigee altitude
640.841 km
Semi-major axis
7,099.903 km
Eccentricity
0.0114
Inclination
71.2431°
RAAN
317.3738°
Arg. of periapsis
314.3591°
True anomaly
73.6083°
Mean anomaly
72.3583°
Eccentric anomaly
72.98277°
Mean motion
3.62798 °/min
Orbital period
99.23 mins
BSTAR
0.000057982
Loading maneuver chart data...
Computing Atmospheric mass density...
Loading historical data...
Loading historical data...
Loading historical data...
Loading historical data...
Loading historical data...
Loading historical data...
Loading historical data...

Documentation

Showing up to 5 results
|